When you browse on this site, cookies collect data to enhance your experience and personalize the content and advertising you see.
Visit our Privacy Policy to learn more. By continuing to use the site, you agree to this use of cookies and data.

Meteo pe oră la Tomaszów Mazowiecki

Astăzi, 14 August, Vineri

Timp Temperatura Precipitaţii Vânt Presiune Umiditate
00:00 +19°C° 0 mm 2 m/s 747 mmHg 64%
01:00 +18°C° 0 mm 2 m/s 747 mmHg 67%
02:00 +18°C° 0 mm 2 m/s 747 mmHg 68%
03:00 +17°C° 0 mm 2 m/s 746 mmHg 69%
04:00 +17°C° 0 mm 2 m/s 746 mmHg 69%
05:00 +18°C° 0 mm 2 m/s 746 mmHg 67%
06:00 +19°C° 0 mm 2 m/s 746 mmHg 65%
07:00 +21°C° 0 mm 3 m/s 747 mmHg 63%
08:00 +24°C° 0 mm 3 m/s 747 mmHg 57%
09:00 +25°C° 0 mm 3 m/s 747 mmHg 52%
10:00 +27°C° 0 mm 3 m/s 747 mmHg 46%
11:00 +28°C° 0 mm 3 m/s 747 mmHg 44%
12:00 +29°C° 0 mm 3 m/s 746 mmHg 42%
13:00 +29°C° 0 mm 3 m/s 746 mmHg 40%
14:00 +29°C° 0 mm 3 m/s 746 mmHg 41%
15:00 +29°C° 0 mm 3 m/s 746 mmHg 42%
16:00 +29°C° 0 mm 3 m/s 746 mmHg 44%
17:00 +27°C° 0 mm 3 m/s 746 mmHg 50%
18:00 +25°C° 0 mm 3 m/s 746 mmHg 56%
19:00 +24°C° 0 mm 3 m/s 746 mmHg 62%
20:00 +22°C° 0 mm 3 m/s 746 mmHg 65%
21:00 +21°C° 0 mm 3 m/s 746 mmHg 67%
22:00 +20°C° 0 mm 4 m/s 746 mmHg 69%
23:00 +19°C° 0 mm 3 m/s 746 mmHg 73%

Mâine, 15 August, Sâmbătă

Timp Temperatura Precipitaţii Vânt Presiune Umiditate
00:00 +19°C° 0 mm 3 m/s 746 mmHg 76%
01:00 +18°C° 0 mm 3 m/s 746 mmHg 80%
02:00 +18°C° 0 mm 3 m/s 746 mmHg 81%
03:00 +18°C° 0 mm 3 m/s 746 mmHg 82%
04:00 +17°C° 0 mm 3 m/s 746 mmHg 83%
05:00 +18°C° 0 mm 3 m/s 746 mmHg 80%
06:00 +18°C° 0 mm 3 m/s 746 mmHg 77%
07:00 +19°C° 0 mm 3 m/s 747 mmHg 74%
08:00 +21°C° 0 mm 4 m/s 747 mmHg 68%
09:00 +22°C° 0 mm 4 m/s 747 mmHg 62%
10:00 +25°C° 0 mm 4 m/s 747 mmHg 56%
11:00 +25°C° 0 mm 4 m/s 747 mmHg 54%
12:00 +26°C° 0 mm 4 m/s 747 mmHg 52%
13:00 +26°C° 0 mm 5 m/s 747 mmHg 50%
14:00 +26°C° 0 mm 4 m/s 747 mmHg 50%
15:00 +26°C° 0 mm 4 m/s 747 mmHg 51%
16:00 +26°C° 0 mm 4 m/s 747 mmHg 51%
17:00 +23°C° 0 mm 4 m/s 747 mmHg 57%
18:00 +22°C° 0 mm 3 m/s 746 mmHg 63%
19:00 +20°C° 0 mm 3 m/s 746 mmHg 69%
20:00 +19°C° 0 mm 3 m/s 747 mmHg 72%
21:00 +18°C° 0 mm 3 m/s 747 mmHg 76%
22:00 +17°C° 0 mm 3 m/s 747 mmHg 79%
23:00 +17°C° 0 mm 3 m/s 747 mmHg 81%

Poimâine, 16 August, Duminică

Timp Temperatura Precipitaţii Vânt Presiune Umiditate
00:00 +16°C° 0 mm 3 m/s 747 mmHg 83%
01:00 +16°C° 0 mm 3 m/s 747 mmHg 85%
02:00 +14°C° 0 mm 3 m/s 747 mmHg 85%
03:00 +14°C° 0 mm 3 m/s 747 mmHg 85%
04:00 +13°C° 0 mm 3 m/s 747 mmHg 85%
05:00 +14°C° 0 mm 3 m/s 747 mmHg 81%
06:00 +17°C° 0 mm 4 m/s 747 mmHg 76%
07:00 +18°C° 0 mm 4 m/s 747 mmHg 72%
08:00 +19°C° 0 mm 4 m/s 747 mmHg 66%
09:00 +21°C° 0 mm 4 m/s 747 mmHg 60%
10:00 +23°C° 0 mm 5 m/s 748 mmHg 54%
11:00 +25°C° 0 mm 5 m/s 747 mmHg 53%
12:00 +25°C° 0 mm 5 m/s 747 mmHg 51%
13:00 +26°C° 0 mm 5 m/s 747 mmHg 50%
14:00 +25°C° 0 mm 5 m/s 747 mmHg 55%
15:00 +23°C° 0 mm 5 m/s 746 mmHg 60%
16:00 +23°C° 0 mm 5 m/s 746 mmHg 65%
17:00 +22°C° 0 mm 4 m/s 746 mmHg 68%
18:00 +21°C° 0 mm 3 m/s 746 mmHg 72%
19:00 +20°C° 0 mm 2 m/s 746 mmHg 76%
20:00 +19°C° 0 mm 2 m/s 746 mmHg 76%
21:00 +19°C° 0 mm 2 m/s 746 mmHg 77%
22:00 +19°C° 0 mm 2 m/s 746 mmHg 78%
23:00 +18°C° 0.2 mm 2 m/s 746 mmHg 83%

17 August, Luni

Timp Temperatura Precipitaţii Vânt Presiune Umiditate
00:00 +18°C° 0.2 mm 2 m/s 745 mmHg 88%
01:00 +17°C° 0.2 mm 2 m/s 745 mmHg 93%
02:00 +17°C° 0.2 mm 2 m/s 745 mmHg 94%
03:00 +17°C° 0.2 mm 2 m/s 745 mmHg 96%
04:00 +16°C° 0.2 mm 2 m/s 745 mmHg 97%
05:00 +17°C° 0.1 mm 2 m/s 745 mmHg 94%
06:00 +18°C° 0.1 mm 2 m/s 745 mmHg 91%
07:00 +19°C° 0.1 mm 2 m/s 745 mmHg 88%
08:00 +21°C° 0 mm 2 m/s 745 mmHg 81%
09:00 +23°C° 0 mm 1 m/s 745 mmHg 73%
10:00 +25°C° 0 mm 1 m/s 744 mmHg 66%
11:00 +26°C° 0 mm 1 m/s 744 mmHg 62%
12:00 +26°C° 0 mm 1 m/s 744 mmHg 59%
13:00 +27°C° 0 mm 1 m/s 744 mmHg 55%
14:00 +27°C° 0 mm 2 m/s 743 mmHg 55%
15:00 +27°C° 0 mm 2 m/s 743 mmHg 54%
16:00 +27°C° 0 mm 2 m/s 743 mmHg 54%
17:00 +25°C° 0 mm 2 m/s 743 mmHg 61%
18:00 +24°C° 0 mm 2 m/s 743 mmHg 69%
19:00 +21°C° 0 mm 2 m/s 743 mmHg 76%
20:00 +20°C° 0 mm 2 m/s 743 mmHg 79%
21:00 +20°C° 0 mm 2 m/s 743 mmHg 82%
22:00 +20°C° 0 mm 1 m/s 743 mmHg 85%
23:00 +19°C° 0 mm 1 m/s 743 mmHg 87%

18 August, Marţi

Timp Temperatura Precipitaţii Vânt Presiune Umiditate
00:00 +19°C° 0 mm 1 m/s 743 mmHg 89%
01:00 +19°C° 0 mm 1 m/s 743 mmHg 90%
02:00 +18°C° 0 mm 1 m/s 742 mmHg 91%
03:00 +18°C° 0 mm 1 m/s 742 mmHg 92%
04:00 +18°C° 0 mm 1 m/s 742 mmHg 93%
05:00 +19°C° 0 mm 1 m/s 742 mmHg 89%
06:00 +20°C° 0 mm 1 m/s 742 mmHg 86%
07:00 +21°C° 0 mm 1 m/s 742 mmHg 82%
08:00 +23°C° 0 mm 1 m/s 742 mmHg 75%
09:00 +24°C° 0 mm 1 m/s 742 mmHg 68%
10:00 +26°C° 0 mm 1 m/s 742 mmHg 62%
11:00 +27°C° 0 mm 1 m/s 741 mmHg 58%
12:00 +27°C° 0 mm 1 m/s 741 mmHg 54%
13:00 +28°C° 0 mm 1 m/s 740 mmHg 51%
14:00 +28°C° 0 mm 1 m/s 740 mmHg 52%
15:00 +28°C° 0 mm 2 m/s 740 mmHg 53%
16:00 +27°C° 0 mm 2 m/s 740 mmHg 54%
17:00 +26°C° 0.4 mm 2 m/s 740 mmHg 62%
18:00 +24°C° 0.4 mm 3 m/s 740 mmHg 70%
19:00 +21°C° 0.4 mm 3 m/s 740 mmHg 78%
20:00 +21°C° 0.5 mm 3 m/s 740 mmHg 81%
21:00 +20°C° 0.5 mm 2 m/s 740 mmHg 84%
22:00 +20°C° 0.5 mm 2 m/s 740 mmHg 87%
23:00 +19°C° 0.7 mm 3 m/s 740 mmHg 88%

19 August, Miercuri

Timp Temperatura Precipitaţii Vânt Presiune Umiditate
00:00 +19°C° 0.7 mm 4 m/s 740 mmHg 88%
01:00 +19°C° 0.7 mm 5 m/s 740 mmHg 89%
02:00 +19°C° 2.3 mm 6 m/s 740 mmHg 90%
03:00 +17°C° 2.3 mm 7 m/s 740 mmHg 92%
04:00 +17°C° 2.3 mm 7 m/s 740 mmHg 93%
05:00 +17°C° 2.7 mm 7 m/s 740 mmHg 93%
06:00 +17°C° 2.7 mm 8 m/s 740 mmHg 93%
07:00 +16°C° 2.7 mm 8 m/s 740 mmHg 92%
08:00 +16°C° 3.3 mm 7 m/s 740 mmHg 93%
09:00 +16°C° 3.3 mm 7 m/s 740 mmHg 93%
10:00 +16°C° 3.3 mm 7 m/s 741 mmHg 94%
11:00 +16°C° 2.3 mm 7 m/s 740 mmHg 93%
12:00 +16°C° 2.3 mm 7 m/s 740 mmHg 92%
13:00 +16°C° 2.3 mm 7 m/s 740 mmHg 91%
14:00 +17°C° 1.1 mm 6 m/s 740 mmHg 90%
15:00 +17°C° 1.1 mm 5 m/s 740 mmHg 89%
16:00 +17°C° 1.1 mm 5 m/s 740 mmHg 89%
17:00 +18°C° 0.2 mm 4 m/s 740 mmHg 89%
18:00 +18°C° 0.2 mm 3 m/s 741 mmHg 90%
19:00 +17°C° 0.2 mm 3 m/s 741 mmHg 91%
20:00 +17°C° 0 mm 3 m/s 741 mmHg 91%
21:00 +17°C° 0 mm 3 m/s 741 mmHg 91%
22:00 +17°C° 0 mm 3 m/s 741 mmHg 91%
23:00 +17°C° 0 mm 3 m/s 741 mmHg 92%
Arată mai mult